TimeMST,TemperatureF,Dew PointF,Humidity,Sea Level PressureIn,VisibilityMPH,Wind Direction,Wind SpeedMPH,Gust SpeedMPH,PrecipitationIn,Events,Conditions,WindDirDegrees,DateUTC
12:53 AM,46.0,19.9,35,29.79,10.0,ESE,8.1,-,N/A,,Clear,110,2013-03-07 07:53:00
1:53 AM,43.0,19.9,40,29.78,10.0,Calm,Calm,-,N/A,,Clear,0,2013-03-07 08:53:00
2:53 AM,39.0,21.9,50,29.80,10.0,North,8.1,-,N/A,,Clear,350,2013-03-07 09:53:00
3:53 AM,37.9,21.0,51,29.82,10.0,ENE,3.5,-,N/A,,Clear,70,2013-03-07 10:53:00
4:53 AM,37.0,21.0,52,29.85,10.0,East,3.5,-,N/A,,Clear,80,2013-03-07 11:53:00
5:53 AM,37.0,21.0,52,29.87,10.0,ENE,8.1,-,N/A,,Clear,60,2013-03-07 12:53:00
6:53 AM,32.0,21.9,66,29.93,10.0,Calm,Calm,-,N/A,,Clear,0,2013-03-07 13:53:00
7:53 AM,39.9,24.1,53,29.93,10.0,East,6.9,-,N/A,,Clear,100,2013-03-07 14:53:00
8:53 AM,51.1,21.9,32,29.91,10.0,SE,6.9,-,N/A,,Clear,130,2013-03-07 15:53:00
9:53 AM,55.9,21.0,26,29.88,10.0,SE,11.5,-,N/A,,Clear,140,2013-03-07 16:53:00
10:53 AM,59.0,17.1,20,29.86,10.0,South,12.7,-,N/A,,Clear,170,2013-03-07 17:53:00
11:53 AM,61.0,14.0,16,29.85,10.0,WSW,13.8,18.4,N/A,,Clear,240,2013-03-07 18:53:00
12:53 PM,63.0,14.0,15,29.80,10.0,SSE,5.8,-,N/A,,Clear,160,2013-03-07 19:53:00
1:53 PM,64.0,12.9,14,29.77,10.0,West,12.7,17.3,N/A,,Clear,260,2013-03-07 20:53:00
2:53 PM,64.9,9.0,11,29.76,10.0,SW,11.5,20.7,N/A,,Clear,220,2013-03-07 21:53:00
3:53 PM,64.0,6.1,10,29.76,10.0,South,11.5,17.3,N/A,,Clear,180,2013-03-07 22:53:00
4:53 PM,63.0,8.1,11,29.76,10.0,South,19.6,-,N/A,,Clear,180,2013-03-07 23:53:00
5:53 PM,60.1,10.0,14,29.78,10.0,South,11.5,20.7,N/A,,Clear,190,2013-03-08 00:53:00
6:53 PM,59.0,10.9,15,29.80,10.0,Calm,Calm,-,N/A,,Clear,0,2013-03-08 01:53:00
7:53 PM,53.1,12.9,20,29.79,10.0,SSE,5.8,-,N/A,,Clear,150,2013-03-08 02:53:00
8:53 PM,45.0,14.0,29,29.78,10.0,East,8.1,-,N/A,,Clear,80,2013-03-08 03:53:00
9:53 PM,46.9,15.1,28,29.76,10.0,ESE,12.7,-,N/A,,Clear,110,2013-03-08 04:53:00
10:53 PM,46.0,16.0,30,29.76,10.0,ESE,12.7,-,N/A,,Clear,110,2013-03-08 05:53:00
11:53 PM,46.9,18.0,32,29.75,10.0,East,13.8,-,N/A,,Clear,100,2013-03-08 06:53:00